Ocala, FL

5:53 AM EST on December 07, 2016 (GMT -0500)
Ocala Regional-Taylor

Weather History for KOCF - March, 2013

Change the Weather History Date:

Thursday, March 21, 2013

  Actual Average Record
Temperature  
Mean Temperature 54 °F -  
Max Temperature 68 °F 75 °F 86 °F (2015)
Min Temperature 41 °F 51 °F 41 °F (2013)
Degree Days  
Heating Degree Days 10    
Growing Degree Days 4 (Base 50)    
Moisture  
Dew Point 40 °F    
Average Humidity 72    
Maximum Humidity 94    
Minimum Humidity 20    
Precipitation  
Precipitation 0.00 in - - ()
Sea Level Pressure  
Sea Level Pressure 29.94 in    
Wind  
Wind Speed 5 mph (NW)    
Max Wind Speed 13 mph    
Max Gust Speed -    
Visibility 9 miles    
Events      
Averages and records for this station are not official NWS values.
T = Trace of Precipitation, MM = Missing Value Source: NWS Daily Summary

Daily Weather History Graph

Daily Weather History Graph

Search for Another Location

Airport or City:

Trip Planner

Search our weather history database for the weather conditions in past years. The results will help you decide how hot, cold, wet, or windy it might be!

Date:

Astronomy

Mar. 21, 2013 Rise Set
Actual Time 7:31 AM EDT 7:41 PM EDT
Civil Twilight 7:07 AM EDT 8:04 PM EDT
Nautical Twilight 6:40 AM EDT 8:32 PM EDT
Astronomical Twilight 6:12 AM EDT 9:00 PM EDT
Moon 2:31 PM EDT (3/21) 3:29 AM EDT (3/21)
Length of Visible Light 12h 57m
Length of Day
12h 09m
Waxing Gibbous, 68% of the Moon is Illuminated
Mar 21
Waxing Gibbous
Mar 27
Full
Apr 3
Last Quarter
Apr 10
New
Apr 18
First Quarter

Hourly Weather History & Observations

Time (EDT) Temp. Windchill Dew Point Humidity Pressure Visibility Wind Dir Wind Speed Gust Speed Precip Events Conditions
12:15 AM 55.4 °F - 53.6 °F 94% 29.91 in 0.5 mi WNW 3.5 mph - N/A   Overcast
12:35 AM 55.4 °F - 53.6 °F 94% 29.91 in 0.5 mi WNW 5.8 mph - N/A   Overcast
12:55 AM 55.4 °F - 53.6 °F 94% 29.92 in 0.8 mi WNW 5.8 mph - N/A   Overcast
1:15 AM 53.6 °F - 51.8 °F 94% 29.92 in 2.0 mi NW 6.9 mph - N/A   Overcast
1:35 AM 53.6 °F - 51.8 °F 94% 29.91 in 8.0 mi NW 5.8 mph - N/A   Overcast
2:15 AM 51.8 °F - 50.0 °F 94% 29.92 in 7.0 mi NW 4.6 mph - N/A   Clear
2:35 AM 51.8 °F - 48.2 °F 88% 29.92 in 7.0 mi NW 4.6 mph - N/A   Clear
2:55 AM 51.8 °F - 48.2 °F 88% 29.92 in 10.0 mi NW 4.6 mph - N/A   Clear
3:15 AM 51.8 °F - 46.4 °F 82% 29.91 in 10.0 mi NW 5.8 mph - N/A   Clear
3:35 AM 50.0 °F - 46.4 °F 87% 29.92 in 10.0 mi NW 8.1 mph - N/A   Clear
3:55 AM 48.2 °F - 44.6 °F 87% 29.92 in 10.0 mi NW 6.9 mph - N/A   Clear
4:15 AM 48.2 °F - 42.8 °F 82% 29.92 in 10.0 mi NNW 5.8 mph - N/A   Clear
4:35 AM 46.4 °F 43.5 °F 42.8 °F 87% 29.92 in 10.0 mi NNW 5.8 mph - N/A   Clear
4:55 AM 44.6 °F - 41.0 °F 87% 29.91 in 10.0 mi Calm Calm - N/A   Clear
5:15 AM 44.6 °F - 41.0 °F 87% 29.92 in 10.0 mi Calm Calm - N/A   Clear
5:35 AM 44.6 °F - 41.0 °F 87% 29.92 in 10.0 mi Calm Calm - N/A   Clear
5:55 AM 42.8 °F - 39.2 °F 87% 29.93 in 10.0 mi Calm Calm - N/A   Clear
6:15 AM 42.8 °F - 39.2 °F 87% 29.93 in 10.0 mi Calm Calm - N/A   Clear
6:35 AM 41.0 °F - 39.2 °F 93% 29.94 in 9.0 mi Calm Calm - N/A   Clear
6:50 AM 41.0 °F 39.0 °F 37.4 °F 87% 29.94 in 8.0 mi SSW 3.5 mph - N/A   Clear
7:50 AM 41.0 °F 38.0 °F 37.4 °F 87% 29.97 in 10.0 mi NNW 4.6 mph - N/A   Clear
8:50 AM 46.4 °F 42.9 °F 41.0 °F 81% 29.97 in 10.0 mi North 6.9 mph - N/A   Partly Cloudy
9:50 AM 51.8 °F - 37.4 °F 58% 29.99 in 10.0 mi North 12.7 mph - N/A   Partly Cloudy
10:50 AM 53.6 °F - 35.6 °F 51% 30.01 in 10.0 mi North 12.7 mph - N/A   Partly Cloudy
11:50 AM 53.6 °F - 37.4 °F 54% 30.00 in 10.0 mi North 8.1 mph - N/A   Partly Cloudy
12:50 PM 60.8 °F - 30.2 °F 31% 29.99 in 10.0 mi North 8.1 mph - N/A   Partly Cloudy
1:50 PM 60.8 °F - 30.2 °F 31% 29.96 in 10.0 mi West 5.8 mph - N/A   Clear
2:50 PM 64.4 °F - 26.6 °F 24% 29.93 in 10.0 mi NW 8.1 mph - N/A   Clear
3:50 PM 68.0 °F - 24.8 °F 20% 29.91 in 10.0 mi NW 11.5 mph - N/A   Clear
4:50 PM 66.2 °F - 24.8 °F 21% 29.90 in 10.0 mi NW 11.5 mph - N/A   Clear
5:50 PM 66.2 °F - 24.8 °F 21% 29.91 in 10.0 mi NW 8.1 mph - N/A   Clear
7:55 PM 57.2 °F - 39.2 °F 51% 29.93 in 10.0 mi WSW 6.9 mph - N/A   Clear
8:15 PM 55.4 °F - 39.2 °F 54% 29.94 in 10.0 mi WSW 4.6 mph - N/A   Clear
8:35 PM 55.4 °F - 39.2 °F 54% 29.94 in 10.0 mi West 3.5 mph - N/A   Clear
8:55 PM 53.6 °F - 37.4 °F 54% 29.94 in 10.0 mi West 3.5 mph - N/A   Clear
9:15 PM 51.8 °F - 39.2 °F 62% 29.95 in 10.0 mi Calm Calm - N/A   Clear
9:35 PM 48.2 °F - 39.2 °F 71% 29.95 in 10.0 mi South 3.5 mph - N/A   Clear
9:55 PM 48.2 °F - 39.2 °F 71% 29.95 in 10.0 mi South 3.5 mph - N/A   Clear
10:15 PM 48.2 °F - 39.2 °F 71% 29.95 in 10.0 mi Calm Calm - N/A   Clear
10:35 PM 46.4 °F - 41.0 °F 81% 29.96 in 10.0 mi Calm Calm - N/A   Clear
10:55 PM 46.4 °F - 39.2 °F 76% 29.96 in 10.0 mi Calm Calm - N/A   Clear
11:15 PM 44.6 °F - 39.2 °F 81% 29.96 in 10.0 mi Calm Calm - N/A   Clear
11:35 PM 44.6 °F - 39.2 °F 81% 29.97 in 10.0 mi Calm Calm - N/A   Clear
11:55 PM 44.6 °F 43.1 °F 39.2 °F 81% 29.97 in 10.0 mi SSW 3.5 mph - N/A   Clear